Regional Weather Roundup
Issued by NWS

Home | Current Version | Previous Version | Graphics & Text | Print | Product List | Glossary On
Versions: 1 2 3 4 5 6 7 8 9 10 11 12 13 14 15 16 17 18 19 20 21 22 23 24 25 26 27 28 29 30 31 32 33 34 35 36 37 38 39 40 41 42 43 44 45 46 47 48 49 50
000
ASUS45 KSLC 290710
RWRUT

UTAH REGIONAL WEATHER ROUNDUP
NATIONAL WEATHER SERVICE SALT LAKE CITY UT
100 AM MDT FRI APR 29 2016

UTZ001>011-023>025-290800-

NORTHERN UTAH

CITY           SKY/WX    TMP DP  RH WIND       PRES   REMARKS
BRIGHAM CITY   PTCLDY    47  26  43 E24G32    29.88R
HILL AFB       MOCLDY    43  29  56 E21G30    29.86R
LOGAN          PTCLDY    45  28  51 E18G24    29.89R
OGDEN          PTCLDY    46  29  51 CALM      29.85R
PROVO AIRPORT  CLOUDY    46  32  57 N12       29.83S
SALT LAKE CITY CLOUDY    48  32  53 SW9       29.84R
VERNAL         CLOUDY    40  31  70 N10       29.86S WCI  33
WENDOVER       PTCLDY    52  32  46 N12       29.87S
HEBER CITY     CLOUDY    37  32  81 N10       29.86S WCI  30

$$

UTZ012>022-026-027-290800-

SOUTHERN/CENTRAL UTAH

CITY           SKY/WX    TMP DP  RH WIND       PRES   REMARKS
BLANDING       CLOUDY    35  32  90 NE5       29.92R WCI  30
BRYCE CANYON   CLOUDY    34  32  92 N3        29.86R
CEDAR CITY     LGT RAIN  40  38  93 SW3       29.86R
DELTA          CLOUDY    43  41  93 S5        29.85R
MILFORD        LGT RAIN  44  41  89 CALM      29.85S
MOAB/CYNLANDS  PTCLDY    42  39  89 N5        29.81R
PRICE          CLOUDY    38  35  89 W7        29.84S WCI  33
ST GEORGE      PTSUNNY   52  45  76 CALM      29.86R

$$

REGIONAL REPORTS     COLORADO/ARIZONA

CITY           SKY/WX    TMP DP  RH WIND       PRES   REMARKS
CRAIG, CO      CLOUDY    39  33  79 S7        29.91S WCI  34
GRAND JUNCTION CLOUDY    42  39  89 NE8       29.81R
RIFLE          CLOUDY    43  37  79 E13       29.85F
MONTROSE       CLOUDY    46  34  62 S14       29.84R
CORTEZ         CLOUDY    36  33  89 CALM      29.86R
PAGE, AZ       LGT RAIN  46  44  93 N7        29.82S
GRAND CANYON   CLOUDY    38  36  92 SW6       29.87S WCI  33
KINGMAN        MOCLDY    48  45  89 NW3       29.85S
FLAGSTAFF      MIX PCPN  35  34  96 W3        29.88S

$$

REGIONAL REPORTS    NEVADA/IDAHO/WYOMING

CITY           SKY/WX    TMP DP  RH WIND       PRES   REMARKS
LAS VEGAS, NV  MOCLDY    57  50  77 CALM      29.80S
ELY            PTCLDY    37  32  82 W5        29.92R WCI  33
ELKO           CLOUDY    46  36  68 S6        29.93S
POCATELLO, ID  CLOUDY    43  31  62 N12       29.88S
BURLEY         CLOUDY    46  40  79 E6        29.87R
EVANSTON, WY   CLOUDY    31  27  85 NE14      29.91F WCI  21
ROCK SPRINGS   CLOUDY    31  25  78 NE16      29.94F WCI  20

$$



USA.gov is the U.S. government's official web portal to all federal, state and local government web resources and services.